owner,sensor,date,latitude,longitude,vertical_datum,wind_speed,wind_to_direction,wind_speed_of_gust,qcFlag 
DISL,ioos:station:DISL:DISL:1,2008-01-01T06:30:00Z,30.2513,-88.0778,9.68,1.84,296.2,-9999.0,'1111122,1111122,1111122' 
DISL,ioos:station:DISL:DISL:1,2008-01-01T07:00:00Z,30.2513,-88.0778,9.68,2.35,297.4,-9999.0,'1111122,1111122,1111122' 
DISL,ioos:station:DISL:DISL:1,2008-01-01T07:30:00Z,30.2513,-88.0778,9.68,2.7,298.4,-9999.0,'1111122,1111122,1111122' 
DISL,ioos:station:DISL:DISL:1,2008-01-01T08:00:00Z,30.2513,-88.0778,9.68,5.08,301.4,-9999.0,'1111122,1111122,1111122' 
DISL,ioos:station:DISL:DISL:1,2008-01-01T08:30:00Z,30.2513,-88.0778,9.68,10.44,314.5,-9999.0,'1111122,1111122,1111122' 
DISL,ioos:station:DISL:DISL:1,2008-01-01T09:00:00Z,30.2513,-88.0778,9.68,11.02,336.4,-9999.0,'1111122,1111122,1111122' 
DISL,ioos:station:DISL:DISL:1,2008-01-01T09:30:00Z,30.2513,-88.0778,9.68,11.0,340.6,-9999.0,'1111122,1111122,1111122' 
DISL,ioos:station:DISL:DISL:1,2008-01-01T10:00:00Z,30.2513,-88.0778,9.68,11.87,341.1,-9999.0,'1111122,1111122,1111122' 
DISL,ioos:station:DISL:DISL:1,2008-01-01T10:30:00Z,30.2513,-88.0778,9.68,10.76,343.3,-9999.0,'1111122,1111122,1111122' 
DISL,ioos:station:DISL:DISL:1,2008-01-01T11:00:00Z,30.2513,-88.0778,9.68,11.11,339.8,-9999.0,'1111122,1111122,1111122' 
DISL,ioos:station:DISL:DISL:1,2008-01-01T11:30:00Z,30.2513,-88.0778,9.68,11.11,338.3,-9999.0,'1111122,1111122,1111122' 
DISL,ioos:station:DISL:DISL:1,2008-01-01T12:00:00Z,30.2513,-88.0778,9.68,11.81,341.4,-9999.0,'1111122,1111122,1111122' 
DISL,ioos:station:DISL:DISL:1,2008-01-01T12:30:00Z,30.2513,-88.0778,9.68,11.2,341.0,-9999.0,'1111122,1111122,1111122' 
DISL,ioos:station:DISL:DISL:1,2008-01-01T13:00:00Z,30.2513,-88.0778,9.68,11.2,339.5,-9999.0,'1111122,1111122,1111122' 
DISL,ioos:station:DISL:DISL:1,2008-01-01T13:30:00Z,30.2513,-88.0778,9.68,11.69,344.9,-9999.0,'1111122,1111122,1111122' 
DISL,ioos:station:DISL:DISL:1,2008-01-01T14:00:00Z,30.2513,-88.0778,9.68,11.31,341.8,-9999.0,'1111122,1111122,1111122' 
DISL,ioos:station:DISL:DISL:1,2008-01-01T14:30:00Z,30.2513,-88.0778,9.68,10.42,348.3,-9999.0,'1111122,1111122,1111122' 
DISL,ioos:station:DISL:DISL:1,2008-01-01T15:00:00Z,30.2513,-88.0778,9.68,10.74,342.4,-9999.0,'1111122,1111122,1111122' 
DISL,ioos:station:DISL:DISL:1,2008-01-01T15:30:00Z,30.2513,-88.0778,9.68,9.72,340.6,-9999.0,'1111122,1111122,1111122' 
DISL,ioos:station:DISL:DISL:1,2008-01-01T16:00:00Z,30.2513,-88.0778,9.68,10.31,343.0,-9999.0,'1111122,1111122,1111122' 
DISL,ioos:station:DISL:DISL:1,2008-01-01T16:30:00Z,30.2513,-88.0778,9.68,9.96,338.0,-9999.0,'1111122,1111122,1111122' 
DISL,ioos:station:DISL:DISL:1,2008-01-01T17:00:00Z,30.2513,-88.0778,9.68,10.76,344.2,-9999.0,'1111122,1111122,1111122' 
DISL,ioos:station:DISL:DISL:1,2008-01-01T17:30:00Z,30.2513,-88.0778,9.68,9.58,341.4,-9999.0,'1111122,1111122,1111122' 
DISL,ioos:station:DISL:DISL:1,2008-01-01T18:00:00Z,30.2513,-88.0778,9.68,8.82,337.1,-9999.0,'1111122,1111122,1111122' 
DISL,ioos:station:DISL:DISL:1,2008-01-01T18:30:00Z,30.2513,-88.0778,9.68,11.12,344.8,-9999.0,'1111122,1111122,1111122' 
DISL,ioos:station:DISL:DISL:1,2008-01-01T19:00:00Z,30.2513,-88.0778,9.68,11.01,342.2,-9999.0,'1111122,1111122,1111122' 
DISL,ioos:station:DISL:DISL:1,2008-01-01T19:30:00Z,30.2513,-88.0778,9.68,10.95,331.1,-9999.0,'1111122,1111122,1111122' 
DISL,ioos:station:DISL:DISL:1,2008-01-01T20:00:00Z,30.2513,-88.0778,9.68,10.31,334.8,-9999.0,'1111122,1111122,1111122' 
DISL,ioos:station:DISL:DISL:1,2008-01-01T20:30:00Z,30.2513,-88.0778,9.68,9.22,336.3,-9999.0,'1111122,1111122,1111122' 
DISL,ioos:station:DISL:DISL:1,2008-01-01T21:00:00Z,30.2513,-88.0778,9.68,9.14,339.2,-9999.0,'1111122,1111122,1111122' 
DISL,ioos:station:DISL:DISL:1,2008-01-01T21:30:00Z,30.2513,-88.0778,9.68,9.25,331.4,-9999.0,'1111122,1111122,1111122' 
DISL,ioos:station:DISL:DISL:1,2008-01-01T22:00:00Z,30.2513,-88.0778,9.68,10.59,349.3,-9999.0,'1111122,1111122,1111122' 
DISL,ioos:station:DISL:DISL:1,2008-01-01T22:30:00Z,30.2513,-88.0778,9.68,8.83,334.2,-9999.0,'1111122,1111122,1111122' 
DISL,ioos:station:DISL:DISL:1,2008-01-01T23:00:00Z,30.2513,-88.0778,9.68,9.54,332.0,-9999.0,'1111122,1111122,1111122' 
DISL,ioos:station:DISL:DISL:1,2008-01-01T23:30:00Z,30.2513,-88.0778,9.68,7.53,330.2,-9999.0,'1111122,1111122,1111122' 
DISL,ioos:station:DISL:DISL:1,2008-01-02T00:00:00Z,30.2513,-88.0778,9.68,7.52,324.3,-9999.0,'1111122,1111122,1111122' 
DISL,ioos:station:DISL:DISL:1,2008-01-02T00:30:00Z,30.2513,-88.0778,9.68,8.28,321.3,-9999.0,'1111122,1111122,1111122' 
DISL,ioos:station:DISL:DISL:1,2008-01-02T01:00:00Z,30.2513,-88.0778,9.68,7.9,316.8,-9999.0,'1111122,1111122,1111122' 
DISL,ioos:station:DISL:DISL:1,2008-01-02T01:30:00Z,30.2513,-88.0778,9.68,9.44,320.0,-9999.0,'1111122,1111122,1111122' 
DISL,ioos:station:DISL:DISL:1,2008-01-02T02:00:00Z,30.2513,-88.0778,9.68,8.64,319.7,-9999.0,'1111122,1111122,1111122' 
DISL,ioos:station:DISL:DISL:1,2008-01-02T02:30:00Z,30.2513,-88.0778,9.68,8.07,326.1,-9999.0,'1111122,1111122,1111122' 
DISL,ioos:station:DISL:DISL:1,2008-01-02T03:00:00Z,30.2513,-88.0778,9.68,7.75,322.3,-9999.0,'1111122,1111122,1111122' 
DISL,ioos:station:DISL:DISL:1,2008-01-02T03:30:00Z,30.2513,-88.0778,9.68,7.46,328.6,-9999.0,'1111122,1111122,1111122' 
DISL,ioos:station:DISL:DISL:1,2008-01-02T04:00:00Z,30.2513,-88.0778,9.68,8.03,323.5,-9999.0,'1111122,1111122,1111122' 
DISL,ioos:station:DISL:DISL:1,2008-01-02T04:30:00Z,30.2513,-88.0778,9.68,8.02,326.4,-9999.0,'1111122,1111122,1111122' 
DISL,ioos:station:DISL:DISL:1,2008-01-02T05:00:00Z,30.2513,-88.0778,9.68,8.56,325.1,-9999.0,'1111122,1111122,1111122' 
DISL,ioos:station:DISL:DISL:1,2008-01-02T05:30:00Z,30.2513,-88.0778,9.68,8.36,330.9,-9999.0,'1111122,1111122,1111122' 
DISL,ioos:station:DISL:DISL:1,2008-01-02T06:00:00Z,30.2513,-88.0778,9.68,10.62,340.1,-9999.0,'1111122,1111122,1111122' 
DISL,ioos:station:DISL:DISL:1,2008-01-02T06:30:00Z,30.2513,-88.0778,9.68,10.34,333.3,-9999.0,'1111122,1111122,1111122' 
DISL,ioos:station:DISL:DISL:1,2008-01-02T07:00:00Z,30.2513,-88.0778,9.68,10.62,333.0,-9999.0,'1111122,1111122,1111122' 
DISL,ioos:station:DISL:DISL:1,2008-01-02T07:30:00Z,30.2513,-88.0778,9.68,8.99,325.6,-9999.0,'1111122,1111122,1111122' 
DISL,ioos:station:DISL:DISL:1,2008-01-02T08:00:00Z,30.2513,-88.0778,9.68,10.45,331.2,-9999.0,'1111122,1111122,1111122' 
DISL,ioos:station:DISL:DISL:1,2008-01-02T08:30:00Z,30.2513,-88.0778,9.68,11.36,327.0,-9999.0,'1111122,1111122,1111122' 
DISL,ioos:station:DISL:DISL:1,2008-01-02T09:00:00Z,30.2513,-88.0778,9.68,11.3,329.7,-9999.0,'1111122,1111122,1111122' 
DISL,ioos:station:DISL:DISL:1,2008-01-02T09:30:00Z,30.2513,-88.0778,9.68,11.82,328.4,-9999.0,'1111122,1111122,1111122' 
DISL,ioos:station:DISL:DISL:1,2008-01-02T10:00:00Z,30.2513,-88.0778,9.68,11.47,330.8,-9999.0,'1111122,1111122,1111122' 
DISL,ioos:station:DISL:DISL:1,2008-01-02T10:30:00Z,30.2513,-88.0778,9.68,12.07,335.1,-9999.0,'1111122,1111122,1111122' 
DISL,ioos:station:DISL:DISL:1,2008-01-02T11:00:00Z,30.2513,-88.0778,9.68,11.74,339.3,-9999.0,'1111122,1111122,1111122' 
DISL,ioos:station:DISL:DISL:1,2008-01-02T11:30:00Z,30.2513,-88.0778,9.68,11.86,335.4,-9999.0,'1111122,1111122,1111122' 
DISL,ioos:station:DISL:DISL:1,2008-01-02T12:00:00Z,30.2513,-88.0778,9.68,11.95,336.9,-9999.0,'1111122,1111122,1111122' 
DISL,ioos:station:DISL:DISL:1,2008-01-02T12:30:00Z,30.2513,-88.0778,9.68,11.17,332.2,-9999.0,'1111122,1111122,1111122' 
DISL,ioos:station:DISL:DISL:1,2008-01-02T13:00:00Z,30.2513,-88.0778,9.68,11.3,329.3,-9999.0,'1111122,1111122,1111122' 
DISL,ioos:station:DISL:DISL:1,2008-01-02T13:30:00Z,30.2513,-88.0778,9.68,11.02,330.9,-9999.0,'1111122,1111122,1111122' 
DISL,ioos:station:DISL:DISL:1,2008-01-02T14:00:00Z,30.2513,-88.0778,9.68,9.71,338.7,-9999.0,'1111122,1111122,1111122' 
DISL,ioos:station:DISL:DISL:1,2008-01-02T14:30:00Z,30.2513,-88.0778,9.68,8.61,339.1,-9999.0,'1111122,1111122,1111122' 
DISL,ioos:station:DISL:DISL:1,2008-01-02T15:00:00Z,30.2513,-88.0778,9.68,10.56,341.4,-9999.0,'1111122,1111122,1111122' 
DISL,ioos:station:DISL:DISL:1,2008-01-02T15:30:00Z,30.2513,-88.0778,9.68,10.77,340.2,-9999.0,'1111122,1111122,1111122' 
DISL,ioos:station:DISL:DISL:1,2008-01-02T16:00:00Z,30.2513,-88.0778,9.68,9.59,342.6,-9999.0,'1111122,1111122,1111122' 
DISL,ioos:station:DISL:DISL:1,2008-01-02T16:30:00Z,30.2513,-88.0778,9.68,8.19,336.3,-9999.0,'1111122,1111122,1111122' 
DISL,ioos:station:DISL:DISL:1,2008-01-02T17:00:00Z,30.2513,-88.0778,9.68,7.97,339.9,-9999.0,'1111122,1111122,1111122' 
DISL,ioos:station:DISL:DISL:1,2008-01-02T17:30:00Z,30.2513,-88.0778,9.68,8.7,340.9,-9999.0,'1111122,1111122,1111122' 
DISL,ioos:station:DISL:DISL:1,2008-01-02T18:00:00Z,30.2513,-88.0778,9.68,7.95,338.7,-9999.0,'1111122,1111122,1111122' 
DISL,ioos:station:DISL:DISL:1,2008-01-02T18:30:00Z,30.2513,-88.0778,9.68,8.02,335.8,-9999.0,'1111122,1111122,1111122' 
DISL,ioos:station:DISL:DISL:1,2008-01-02T19:00:00Z,30.2513,-88.0778,9.68,6.76,334.4,-9999.0,'1111122,1111122,1111122' 
DISL,ioos:station:DISL:DISL:1,2008-01-02T19:30:00Z,30.2513,-88.0778,9.68,7.55,342.1,-9999.0,'1111122,1111122,1111122' 
DISL,ioos:station:DISL:DISL:1,2008-01-02T20:00:00Z,30.2513,-88.0778,9.68,7.36,350.6,-9999.0,'1111122,1111122,1111122' 
DISL,ioos:station:DISL:DISL:1,2008-01-02T20:30:00Z,30.2513,-88.0778,9.68,7.58,339.1,-9999.0,'1111122,1111122,1111122' 
DISL,ioos:station:DISL:DISL:1,2008-01-02T21:00:00Z,30.2513,-88.0778,9.68,7.68,337.9,-9999.0,'1111122,1111122,1111122' 
DISL,ioos:station:DISL:DISL:1,2008-01-02T21:30:00Z,30.2513,-88.0778,9.68,9.18,342.5,-9999.0,'1111122,1111122,1111122' 
DISL,ioos:station:DISL:DISL:1,2008-01-02T22:00:00Z,30.2513,-88.0778,9.68,8.67,341.3,-9999.0,'1111122,1111122,1111122' 
DISL,ioos:station:DISL:DISL:1,2008-01-02T22:30:00Z,30.2513,-88.0778,9.68,9.86,340.2,-9999.0,'1111122,1111122,1111122' 
DISL,ioos:station:DISL:DISL:1,2008-01-02T23:00:00Z,30.2513,-88.0778,9.68,9.2,329.8,-9999.0,'1111122,1111122,1111122' 
DISL,ioos:station:DISL:DISL:1,2008-01-02T23:30:00Z,30.2513,-88.0778,9.68,8.89,337.4,-9999.0,'1111122,1111122,1111122' 
DISL,ioos:station:DISL:DISL:1,2008-01-03T00:00:00Z,30.2513,-88.0778,9.68,9.42,334.0,-9999.0,'1111122,1111122,1111122' 
DISL,ioos:station:DISL:DISL:1,2008-01-03T00:30:00Z,30.2513,-88.0778,9.68,9.79,336.7,-9999.0,'1111122,1111122,1111122' 
DISL,ioos:station:DISL:DISL:1,2008-01-03T01:00:00Z,30.2513,-88.0778,9.68,9.41,338.6,-9999.0,'1111122,1111122,1111122' 
DISL,ioos:station:DISL:DISL:1,2008-01-03T01:30:00Z,30.2513,-88.0778,9.68,8.94,335.9,-9999.0,'1111122,1111122,1111122' 
DISL,ioos:station:DISL:DISL:1,2008-01-03T02:00:00Z,30.2513,-88.0778,9.68,8.71,338.4,-9999.0,'1111122,1111122,1111122' 
DISL,ioos:station:DISL:DISL:1,2008-01-03T02:30:00Z,30.2513,-88.0778,9.68,10.01,4.824,-9999.0,'1111122,1111122,1111122' 
DISL,ioos:station:DISL:DISL:1,2008-01-03T03:00:00Z,30.2513,-88.0778,9.68,9.17,4.282,-9999.0,'1111122,1111122,1111122' 
DISL,ioos:station:DISL:DISL:1,2008-01-03T03:30:00Z,30.2513,-88.0778,9.68,9.67,19.09,-9999.0,'1111122,1111122,1111122' 
DISL,ioos:station:DISL:DISL:1,2008-01-03T04:00:00Z,30.2513,-88.0778,9.68,10.74,7.9,-9999.0,'1111122,1111122,1111122' 
DISL,ioos:station:DISL:DISL:1,2008-01-03T04:30:00Z,30.2513,-88.0778,9.68,9.61,19.25,-9999.0,'1111122,1111122,1111122' 
DISL,ioos:station:DISL:DISL:1,2008-01-03T05:00:00Z,30.2513,-88.0778,9.68,10.01,15.0,-9999.0,'1111122,1111122,1111122' 
DISL,ioos:station:DISL:DISL:1,2008-01-03T05:30:00Z,30.2513,-88.0778,9.68,9.57,14.16,-9999.0,'1111122,1111122,1111122' 
DISL,ioos:station:DISL:DISL:1,2008-01-03T06:00:00Z,30.2513,-88.0778,9.68,9.74,26.32,-9999.0,'1111122,1111122,1111122' 
DISL,ioos:station:DISL:DISL:1,2008-01-03T06:30:00Z,30.2513,-88.0778,9.68,9.15,19.73,-9999.0,'1111122,1111122,1111122' 
DISL,ioos:station:DISL:DISL:1,2008-01-03T07:00:00Z,30.2513,-88.0778,9.68,10.0,29.95,-9999.0,'1111122,1111122,1111122' 
DISL,ioos:station:DISL:DISL:1,2008-01-03T07:30:00Z,30.2513,-88.0778,9.68,9.87,17.83,-9999.0,'1111122,1111122,1111122' 
DISL,ioos:station:DISL:DISL:1,2008-01-03T08:00:00Z,30.2513,-88.0778,9.68,10.26,23.83,-9999.0,'1111122,1111122,1111122' 
DISL,ioos:station:DISL:DISL:1,2008-01-03T08:30:00Z,30.2513,-88.0778,9.68,10.39,17.81,-9999.0,'1111122,1111122,1111122' 
DISL,ioos:station:DISL:DISL:1,2008-01-03T09:00:00Z,30.2513,-88.0778,9.68,10.1,25.28,-9999.0,'1111122,1111122,1111122' 
DISL,ioos:station:DISL:DISL:1,2008-01-03T09:30:00Z,30.2513,-88.0778,9.68,10.62,20.58,-9999.0,'1111122,1111122,1111122' 
DISL,ioos:station:DISL:DISL:1,2008-01-03T10:00:00Z,30.2513,-88.0778,9.68,10.08,28.05,-9999.0,'1111122,1111122,1111122' 
DISL,ioos:station:DISL:DISL:1,2008-01-03T10:30:00Z,30.2513,-88.0778,9.68,9.92,21.86,-9999.0,'1111122,1111122,1111122' 
DISL,ioos:station:DISL:DISL:1,2008-01-03T11:00:00Z,30.2513,-88.0778,9.68,9.89,25.23,-9999.0,'1111122,1111122,1111122' 
DISL,ioos:station:DISL:DISL:1,2008-01-03T11:30:00Z,30.2513,-88.0778,9.68,9.48,20.76,-9999.0,'1111122,1111122,1111122' 
DISL,ioos:station:DISL:DISL:1,2008-01-03T12:00:00Z,30.2513,-88.0778,9.68,9.34,21.75,-9999.0,'1111122,1111122,1111122' 
DISL,ioos:station:DISL:DISL:1,2008-01-03T12:30:00Z,30.2513,-88.0778,9.68,9.08,18.35,-9999.0,'1111122,1111122,1111122' 
DISL,ioos:station:DISL:DISL:1,2008-01-03T13:00:00Z,30.2513,-88.0778,9.68,9.22,18.98,-9999.0,'1111122,1111122,1111122' 
DISL,ioos:station:DISL:DISL:1,2008-01-03T13:30:00Z,30.2513,-88.0778,9.68,9.14,21.52,-9999.0,'1111122,1111122,1111122' 
DISL,ioos:station:DISL:DISL:1,2008-01-03T14:00:00Z,30.2513,-88.0778,9.68,8.86,18.37,-9999.0,'1111122,1111122,1111122' 
DISL,ioos:station:DISL:DISL:1,2008-01-03T14:30:00Z,30.2513,-88.0778,9.68,8.65,25.98,-9999.0,'1111122,1111122,1111122' 
DISL,ioos:station:DISL:DISL:1,2008-01-03T15:00:00Z,30.2513,-88.0778,9.68,7.74,21.65,-9999.0,'1111122,1111122,1111122' 
DISL,ioos:station:DISL:DISL:1,2008-01-03T15:30:00Z,30.2513,-88.0778,9.68,6.43,28.02,-9999.0,'1111122,1111122,1111122' 
DISL,ioos:station:DISL:DISL:1,2008-01-03T16:00:00Z,30.2513,-88.0778,9.68,5.86,22.34,-9999.0,'1111122,1111122,1111122' 
DISL,ioos:station:DISL:DISL:1,2008-01-03T16:30:00Z,30.2513,-88.0778,9.68,5.93,18.74,-9999.0,'1111122,1111122,1111122' 
DISL,ioos:station:DISL:DISL:1,2008-01-03T17:00:00Z,30.2513,-88.0778,9.68,5.66,19.66,-9999.0,'1111122,1111122,1111122' 
DISL,ioos:station:DISL:DISL:1,2008-01-03T17:30:00Z,30.2513,-88.0778,9.68,5.24,19.99,-9999.0,'1111122,1111122,1111122' 
DISL,ioos:station:DISL:DISL:1,2008-01-03T18:00:00Z,30.2513,-88.0778,9.68,5.36,22.87,-9999.0,'1111122,1111122,1111122' 
DISL,ioos:station:DISL:DISL:1,2008-01-03T18:30:00Z,30.2513,-88.0778,9.68,5.19,18.93,-9999.0,'1111122,1111122,1111122' 
DISL,ioos:station:DISL:DISL:1,2008-01-03T19:00:00Z,30.2513,-88.0778,9.68,4.69,17.59,-9999.0,'1111122,1111122,1111122' 
DISL,ioos:station:DISL:DISL:1,2008-01-03T19:30:00Z,30.2513,-88.0778,9.68,4.51,7.37,-9999.0,'1111122,1111122,1111122' 
DISL,ioos:station:DISL:DISL:1,2008-01-03T20:00:00Z,30.2513,-88.0778,9.68,3.64,4.54,-9999.0,'1111122,1111122,1111122' 
DISL,ioos:station:DISL:DISL:1,2008-01-03T20:30:00Z,30.2513,-88.0778,9.68,3.1,13.27,-9999.0,'1111122,1111122,1111122' 
DISL,ioos:station:DISL:DISL:1,2008-01-03T21:00:00Z,30.2513,-88.0778,9.68,3.21,7.76,-9999.0,'1111122,1111122,1111122' 
DISL,ioos:station:DISL:DISL:1,2008-01-03T21:30:00Z,30.2513,-88.0778,9.68,2.77,352.1,-9999.0,'1111122,1111122,1111122' 
DISL,ioos:station:DISL:DISL:1,2008-01-03T22:00:00Z,30.2513,-88.0778,9.68,2.29,11.88,-9999.0,'1111122,1111122,1111122' 
DISL,ioos:station:DISL:DISL:1,2008-01-03T22:30:00Z,30.2513,-88.0778,9.68,2.65,345.7,-9999.0,'1111122,1111122,1111122' 
DISL,ioos:station:DISL:DISL:1,2008-01-03T23:00:00Z,30.2513,-88.0778,9.68,2.4,344.3,-9999.0,'1111122,1111122,1111122' 
DISL,ioos:station:DISL:DISL:1,2008-01-03T23:30:00Z,30.2513,-88.0778,9.68,2.89,355.1,-9999.0,'1111122,1111122,1111122' 
DISL,ioos:station:DISL:DISL:1,2008-01-04T00:00:00Z,30.2513,-88.0778,9.68,2.87,350.1,-9999.0,'1111122,1111122,1111122' 
DISL,ioos:station:DISL:DISL:1,2008-01-04T00:30:00Z,30.2513,-88.0778,9.68,3.86,337.7,-9999.0,'1111122,1111122,1111122' 
DISL,ioos:station:DISL:DISL:1,2008-01-04T01:00:00Z,30.2513,-88.0778,9.68,4.05,329.5,-9999.0,'1111122,1111122,1111122' 
DISL,ioos:station:DISL:DISL:1,2008-01-04T01:30:00Z,30.2513,-88.0778,9.68,4.3,339.4,-9999.0,'1111122,1111122,1111122' 
DISL,ioos:station:DISL:DISL:1,2008-01-04T02:00:00Z,30.2513,-88.0778,9.68,3.99,51.8,-9999.0,'1111122,1111122,1111122' 
DISL,ioos:station:DISL:DISL:1,2008-01-04T02:30:00Z,30.2513,-88.0778,9.68,3.51,63.85,-9999.0,'1111122,1111122,1111122' 
DISL,ioos:station:DISL:DISL:1,2008-01-04T03:00:00Z,30.2513,-88.0778,9.68,3.77,65.62,-9999.0,'1111122,1111122,1111122' 
DISL,ioos:station:DISL:DISL:1,2008-01-04T03:30:00Z,30.2513,-88.0778,9.68,4.92,59.38,-9999.0,'1111122,1111122,1111122' 
DISL,ioos:station:DISL:DISL:1,2008-01-04T04:00:00Z,30.2513,-88.0778,9.68,5.54,65.56,-9999.0,'1111122,1111122,1111122' 
DISL,ioos:station:DISL:DISL:1,2008-01-04T04:30:00Z,30.2513,-88.0778,9.68,5.27,70.3,-9999.0,'1111122,1111122,1111122' 
DISL,ioos:station:DISL:DISL:1,2008-01-04T05:00:00Z,30.2513,-88.0778,9.68,5.78,62.51,-9999.0,'1111122,1111122,1111122' 
DISL,ioos:station:DISL:DISL:1,2008-01-04T05:30:00Z,30.2513,-88.0778,9.68,6.32,63.81,-9999.0,'1111122,1111122,1111122' 
DISL,ioos:station:DISL:DISL:1,2008-01-04T06:00:00Z,30.2513,-88.0778,9.68,6.88,67.82,-9999.0,'1111122,1111122,1111122' 
DISL,ioos:station:DISL:DISL:1,2008-01-04T06:30:00Z,30.2513,-88.0778,9.68,7.54,67.9,-9999.0,'1111122,1111122,1111122' 
DISL,ioos:station:DISL:DISL:1,2008-01-04T07:00:00Z,30.2513,-88.0778,9.68,7.59,69.93,-9999.0,'1111122,1111122,1111122' 
DISL,ioos:station:DISL:DISL:1,2008-01-04T07:30:00Z,30.2513,-88.0778,9.68,7.02,65.11,-9999.0,'1111122,1111122,1111122' 
DISL,ioos:station:DISL:DISL:1,2008-01-04T08:00:00Z,30.2513,-88.0778,9.68,7.33,66.34,-9999.0,'1111122,1111122,1111122' 
DISL,ioos:station:DISL:DISL:1,2008-01-04T08:30:00Z,30.2513,-88.0778,9.68,7.72,62.64,-9999.0,'1111122,1111122,1111122' 
DISL,ioos:station:DISL:DISL:1,2008-01-04T09:00:00Z,30.2513,-88.0778,9.68,8.08,64.7,-9999.0,'1111122,1111122,1111122' 
DISL,ioos:station:DISL:DISL:1,2008-01-04T09:30:00Z,30.2513,-88.0778,9.68,8.41,67.12,-9999.0,'1111122,1111122,1111122' 
DISL,ioos:station:DISL:DISL:1,2008-01-04T10:00:00Z,30.2513,-88.0778,9.68,7.17,64.76,-9999.0,'1111122,1111122,1111122' 
DISL,ioos:station:DISL:DISL:1,2008-01-04T10:30:00Z,30.2513,-88.0778,9.68,7.74,67.25,-9999.0,'1111122,1111122,1111122' 
DISL,ioos:station:DISL:DISL:1,2008-01-04T11:00:00Z,30.2513,-88.0778,9.68,7.99,67.01,-9999.0,'1111122,1111122,1111122' 
DISL,ioos:station:DISL:DISL:1,2008-01-04T11:30:00Z,30.2513,-88.0778,9.68,7.79,68.71,-9999.0,'1111122,1111122,1111122' 
DISL,ioos:station:DISL:DISL:1,2008-01-04T12:00:00Z,30.2513,-88.0778,9.68,8.55,70.1,-9999.0,'1111122,1111122,1111122' 
DISL,ioos:station:DISL:DISL:1,2008-01-04T12:30:00Z,30.2513,-88.0778,9.68,8.18,70.2,-9999.0,'1111122,1111122,1111122' 
DISL,ioos:station:DISL:DISL:1,2008-01-04T13:00:00Z,30.2513,-88.0778,9.68,9.16,73.9,-9999.0,'1111122,1111122,1111122' 
DISL,ioos:station:DISL:DISL:1,2008-01-04T13:30:00Z,30.2513,-88.0778,9.68,9.57,74.2,-9999.0,'1111122,1111122,1111122' 
DISL,ioos:station:DISL:DISL:1,2008-01-04T14:00:00Z,30.2513,-88.0778,9.68,9.14,76.5,-9999.0,'1111122,1111122,1111122' 
DISL,ioos:station:DISL:DISL:1,2008-01-04T14:30:00Z,30.2513,-88.0778,9.68,9.02,84.6,-9999.0,'1111122,1111122,1111122' 
DISL,ioos:station:DISL:DISL:1,2008-01-04T15:00:00Z,30.2513,-88.0778,9.68,8.76,83.6,-9999.0,'1111122,1111122,1111122' 
DISL,ioos:station:DISL:DISL:1,2008-01-04T15:30:00Z,30.2513,-88.0778,9.68,8.36,86.0,-9999.0,'1111122,1111122,1111122' 
DISL,ioos:station:DISL:DISL:1,2008-01-04T16:00:00Z,30.2513,-88.0778,9.68,8.09,84.4,-9999.0,'1111122,1111122,1111122' 
DISL,ioos:station:DISL:DISL:1,2008-01-04T16:30:00Z,30.2513,-88.0778,9.68,8.21,84.1,-9999.0,'1111122,1111122,1111122' 
DISL,ioos:station:DISL:DISL:1,2008-01-04T17:00:00Z,30.2513,-88.0778,9.68,7.8,78.2,-9999.0,'1111122,1111122,1111122' 
DISL,ioos:station:DISL:DISL:1,2008-01-04T17:30:00Z,30.2513,-88.0778,9.68,6.89,78.4,-9999.0,'1111122,1111122,1111122' 
DISL,ioos:station:DISL:DISL:1,2008-01-04T18:00:00Z,30.2513,-88.0778,9.68,8.07,100.5,-9999.0,'1111122,1111122,1111122' 
DISL,ioos:station:DISL:DISL:1,2008-01-04T18:30:00Z,30.2513,-88.0778,9.68,9.31,101.4,-9999.0,'1111122,1111122,1111122' 
DISL,ioos:station:DISL:DISL:1,2008-01-04T19:00:00Z,30.2513,-88.0778,9.68,9.23,99.1,-9999.0,'1111122,1111122,1111122' 
DISL,ioos:station:DISL:DISL:1,2008-01-04T19:30:00Z,30.2513,-88.0778,9.68,9.02,100.9,-9999.0,'1111122,1111122,1111122' 
DISL,ioos:station:DISL:DISL:1,2008-01-04T20:00:00Z,30.2513,-88.0778,9.68,8.4,107.1,-9999.0,'1111122,1111122,1111122' 
DISL,ioos:station:DISL:DISL:1,2008-01-04T20:30:00Z,30.2513,-88.0778,9.68,8.77,102.7,-9999.0,'1111122,1111122,1111122' 
DISL,ioos:station:DISL:DISL:1,2008-01-04T21:00:00Z,30.2513,-88.0778,9.68,8.72,103.4,-9999.0,'1111122,1111122,1111122' 
DISL,ioos:station:DISL:DISL:1,2008-01-04T21:30:00Z,30.2513,-88.0778,9.68,7.93,102.4,-9999.0,'1111122,1111122,1111122' 
DISL,ioos:station:DISL:DISL:1,2008-01-04T22:00:00Z,30.2513,-88.0778,9.68,8.08,102.3,-9999.0,'1111122,1111122,1111122' 
DISL,ioos:station:DISL:DISL:1,2008-01-04T22:30:00Z,30.2513,-88.0778,9.68,8.42,95.0,-9999.0,'1111122,1111122,1111122' 
DISL,ioos:station:DISL:DISL:1,2008-01-04T23:00:00Z,30.2513,-88.0778,9.68,7.43,84.8,-9999.0,'1111122,1111122,1111122' 
DISL,ioos:station:DISL:DISL:1,2008-01-04T23:30:00Z,30.2513,-88.0778,9.68,7.65,90.6,-9999.0,'1111122,1111122,1111122' 
DISL,ioos:station:DISL:DISL:1,2008-01-05T00:00:00Z,30.2513,-88.0778,9.68,7.61,85.5,-9999.0,'1111122,1111122,1111122' 
DISL,ioos:station:DISL:DISL:1,2008-01-05T00:30:00Z,30.2513,-88.0778,9.68,7.81,81.9,-9999.0,'1111122,1111122,1111122' 
DISL,ioos:station:DISL:DISL:1,2008-01-05T01:00:00Z,30.2513,-88.0778,9.68,8.45,87.1,-9999.0,'1111122,1111122,1111122' 
DISL,ioos:station:DISL:DISL:1,2008-01-05T01:30:00Z,30.2513,-88.0778,9.68,8.61,86.3,-9999.0,'1111122,1111122,1111122' 
DISL,ioos:station:DISL:DISL:1,2008-01-05T02:00:00Z,30.2513,-88.0778,9.68,8.12,88.5,-9999.0,'1111122,1111122,1111122' 
DISL,ioos:station:DISL:DISL:1,2008-01-05T02:30:00Z,30.2513,-88.0778,9.68,7.79,80.3,-9999.0,'1111122,1111122,1111122' 
DISL,ioos:station:DISL:DISL:1,2008-01-05T03:00:00Z,30.2513,-88.0778,9.68,9.06,86.4,-9999.0,'1111122,1111122,1111122' 
DISL,ioos:station:DISL:DISL:1,2008-01-05T03:30:00Z,30.2513,-88.0778,9.68,7.97,90.1,-9999.0,'1111122,1111122,1111122' 
DISL,ioos:station:DISL:DISL:1,2008-01-05T04:00:00Z,30.2513,-88.0778,9.68,6.44,91.4,-9999.0,'1111122,1111122,1111122' 
DISL,ioos:station:DISL:DISL:1,2008-01-05T04:30:00Z,30.2513,-88.0778,9.68,4.9,93.4,-9999.0,'1111122,1111122,1111122' 
DISL,ioos:station:DISL:DISL:1,2008-01-05T05:00:00Z,30.2513,-88.0778,9.68,4.92,85.8,-9999.0,'1111122,1111122,1111122' 
DISL,ioos:station:DISL:DISL:1,2008-01-05T05:30:00Z,30.2513,-88.0778,9.68,4.64,92.7,-9999.0,'1111122,1111122,1111122' 
DISL,ioos:station:DISL:DISL:1,2008-01-05T06:00:00Z,30.2513,-88.0778,9.68,4.09,81.0,-9999.0,'1111122,1111122,1111122' 
DISL,ioos:station:DISL:DISL:1,2008-01-05T06:30:00Z,30.2513,-88.0778,9.68,4.53,70.7,-9999.0,'1111122,1111122,1111122' 
DISL,ioos:station:DISL:DISL:1,2008-01-05T07:00:00Z,30.2513,-88.0778,9.68,4.55,69.82,-9999.0,'1111122,1111122,1111122' 
DISL,ioos:station:DISL:DISL:1,2008-01-05T07:30:00Z,30.2513,-88.0778,9.68,5.12,72.7,-9999.0,'1111122,1111122,1111122' 
DISL,ioos:station:DISL:DISL:1,2008-01-05T08:00:00Z,30.2513,-88.0778,9.68,5.28,72.4,-9999.0,'1111122,1111122,1111122' 
DISL,ioos:station:DISL:DISL:1,2008-01-05T08:30:00Z,30.2513,-88.0778,9.68,5.11,74.8,-9999.0,'1111122,1111122,1111122' 
DISL,ioos:station:DISL:DISL:1,2008-01-05T09:00:00Z,30.2513,-88.0778,9.68,5.61,72.3,-9999.0,'1111122,1111122,1111122' 
DISL,ioos:station:DISL:DISL:1,2008-01-05T09:30:00Z,30.2513,-88.0778,9.68,4.94,73.7,-9999.0,'1111122,1111122,1111122' 
DISL,ioos:station:DISL:DISL:1,2008-01-05T10:00:00Z,30.2513,-88.0778,9.68,5.45,74.5,-9999.0,'1111122,1111122,1111122' 